Location: Aulnoy
(48.8410°N, 3.0967°E)
Time: 22:17:33
(UTC+00:00)

Cosmos 2322 - Pass Details

Date: 09 February 2023
Orbit: 841 x 853 km, 71.0° (Epoch: 28 March)

Event Time Altitude Azimuth Distance (km) Brightness Sun altitude
Rises 17:32:56 0° 180° (S) 3,408 7.1 -6.3°
Reaches altitude 10° 17:35:32 10° 173° (S) 2,477 6.2 -6.7°
Maximum altitude 17:40:43 37° 107° (ESE) 1,293 4.3 -7.5°
Drops below altitude 10° 17:45:55 10° 41° (NE) 2,492 5.7 -8.4°
Enters shadow 17:48:23 - 34° (NE) 3,377 6.4 -8.8°
